Location: Byhalia Creek
(34.8270°N, 89.8040°W)
Time: 20:13:29
(UTC+00:00)

Cosmos 2333 Rocket - Pass Details

Date: 22 April 2026
Orbit: 841 x 861 km, 70.8° (Epoch: 21 May)

Event Time Altitude Azimuth Distance (km) Brightness Sun altitude
Rises 07:37:30 0° 347° (NNW) 3,408 5.9 -37.3°
Reaches altitude 10° 07:40:10 10° 357° (N) 2,472 5.2 -37.0°
Enters shadow 07:44:45 34° 49° (NE) 1,363 3.6 -36.5°
